Theta_e
307 308 308 307 307 306 306 306 306 305 307 307 307 307 307 307 307 308 307 307 307 307 307 307 307 307 308 308 307 308 306 305 304 304 303 303 303 303 304 304 306 306 307 309 308 310 310 311 310 309 309 309 308 311 310 306 315 327 321 314 310 307 306 305 304 306 304 301 302 301 300 300 298 296 295 294 293 293 293 292 290 289 289 288 288 289 289 289
307 309 308 308 307 307 306 306 306 306 306 306 308 307 307 308 307 308 307 307 307 307 307 307 307 307 307 308 307 307 307 305 304 304 303 303 303 304 305 305 305 306 307 309 309 310 310 310 308 308 311 311 309 311 310 307 312 320 319 313 309 308 304 303 304 302 303 301 302 303 300 300 300 298 297 296 294 293 293 291 290 289 288 288 287 288 288 288
307 309 308 308 307 307 307 307 306 306 306 306 307 308 308 308 307 307 307 307 307 307 307 307 307 307 307 307 307 307 307 306 304 304 303 303 304 304 305 305 306 307 308 309 310 310 310 311 307 309 314 311 309 311 311 312 311 311 315 310 305 307 303 301 303 301 302 301 303 305 301 300 299 298 298 296 294 293 293 291 290 290 289 288 287 287 288 288
308 309 308 308 308 307 307 307 307 306 306 306 306 308 308 308 307 307 307 306 306 307 307 307 307 307 307 307 307 307 307 307 304 303 304 303 304 304 304 305 306 307 308 309 309 309 311 310 308 314 318 312 315 316 310 311 311 308 312 310 303 303 303 301 301 301 302 301 302 304 302 300 297 297 296 295 297 295 293 293 293 291 289 288 286 286 287 287
307 308 308 308 307 307 307 307 307 306 306 306 307 307 307 307 306 306 306 305 306 307 307 307 307 307 307 307 308 307 308 309 305 302 304 303 303 304 304 305 306 307 308 309 308 308 310 309 311 320 320 314 320 320 309 308 310 308 306 306 303 302 302 301 301 301 301 300 302 303 303 300 297 297 295 296 302 300 295 295 294 290 288 287 286 286 286 286
308 308 309 308 307 307 307 306 306 306 306 307 306 306 307 306 305 305 304 305 307 307 307 307 306 307 307 307 308 308 309 308 304 303 304 304 303 303 305 306 307 307 308 309 307 307 308 309 312 318 321 315 313 313 307 306 308 307 303 302 303 303 302 300 300 300 301 301 304 304 301 299 298 298 294 295 299 297 294 293 291 288 288 287 286 286 286 286
307 309 309 307 307 307 307 306 306 306 307 307 306 306 306 305 305 304 304 306 307 307 307 306 307 309 309 307 306 306 307 305 303 303 304 304 303 303 305 306 307 307 309 308 306 307 307 310 310 316 324 316 308 309 307 306 308 308 304 302 301 301 301 300 299 300 302 302 302 300 299 299 300 299 295 293 293 292 291 289 288 288 287 287 286 286 285 286
307 309 308 307 307 307 307 306 306 307 306 306 306 306 306 305 305 305 305 306 306 307 307 306 308 309 310 308 307 306 305 303 303 303 304 304 303 304 305 306 307 306 307 306 305 306 308 310 309 313 318 311 308 310 307 308 310 308 305 302 301 300 300 299 299 300 300 299 297 298 299 298 297 297 294 292 291 290 289 288 288 288 287 286 285 285 285 285
307 308 308 308 307 307 307 306 306 307 306 306 306 306 306 305 305 305 305 306 306 306 307 307 308 308 308 307 308 308 304 303 303 303 304 304 303 304 305 306 306 307 305 305 306 306 308 310 308 311 312 309 310 309 309 311 308 307 306 302 300 300 299 299 299 300 299 296 298 300 297 294 294 295 294 291 290 290 288 288 287 287 287 287 285 285 285 285
307 308 308 307 307 307 307 306 307 307 306 306 306 306 306 306 305 305 305 305 305 306 306 307 307 308 307 305 308 308 303 303 303 304 305 303 303 305 305 305 305 305 305 304 305 305 308 308 306 308 309 310 309 306 310 311 306 309 310 304 302 300 299 301 299 298 299 296 299 302 296 293 293 295 296 291 290 289 288 289 287 288 289 287 286 285 286 285
307 308 308 307 307 307 307 307 307 307 307 306 306 306 306 306 305 305 305 305 305 305 305 306 307 307 305 304 306 305 302 303 303 304 305 303 303 305 304 304 304 304 304 303 303 304 306 306 305 307 308 307 308 308 308 307 306 309 310 305 303 303 300 301 301 298 300 297 297 301 295 293 293 296 298 292 289 289 288 289 288 288 288 287 286 285 285 286
308 307 307 307 307 307 307 307 306 307 307 306 306 306 306 306 305 305 305 305 306 306 306 307 308 307 305 303 304 304 303 303 303 304 305 303 303 303 303 304 304 304 304 302 302 304 305 306 308 311 311 306 307 309 306 304 307 310 311 307 306 309 305 300 302 300 301 298 295 297 296 297 298 296 295 290 289 289 288 288 288 288 287 287 286 285 285 286
307 307 307 308 307 307 307 307 306 307 306 306 306 305 305 305 305 305 306 306 306 307 307 307 307 308 308 306 304 303 303 303 304 304 304 304 303 303 303 304 304 304 305 303 302 304 306 307 307 309 312 311 307 305 305 307 308 307 308 310 310 313 308 301 301 301 300 299 297 298 301 304 302 295 291 289 288 288 288 288 287 288 287 287 287 286 285 285
307 307 307 308 307 307 307 307 307 306 306 305 305 305 305 305 306 305 306 307 306 308 309 307 306 307 308 307 304 304 304 303 304 304 304 304 304 304 304 304 304 304 304 304 304 303 304 306 306 306 308 308 306 306 311 314 312 308 306 310 310 308 307 302 300 302 300 300 300 299 301 305 302 294 290 289 288 288 288 287 287 287 287 287 287 287 286 285
307 307 307 307 307 307 307 307 307 306 305 305 305 305 305 305 305 305 307 307 307 309 309 308 307 308 309 305 303 304 304 303 303 304 304 304 304 304 304 304 304 304 304 304 304 304 303 304 305 305 305 305 309 314 314 314 314 311 308 313 311 305 306 304 301 303 301 299 301 301 302 305 302 295 290 288 288 288 288 287 287 287 286 286 286 286 286 285
307 307 308 307 307 307 307 307 306 306 305 305 306 306 306 306 306 307 307 307 308 308 307 308 305 308 311 305 303 304 303 303 303 303 304 305 305 305 305 304 303 304 304 303 304 304 303 303 303 303 305 306 310 314 312 314 317 312 309 311 310 305 304 304 302 303 302 300 301 301 301 304 303 295 290 289 288 288 288 287 286 286 286 286 286 286 286 286
308 307 307 307 307 306 306 306 306 306 306 306 307 306 306 306 306 307 307 307 307 306 306 306 304 307 308 304 303 304 303 303 303 303 304 305 305 305 305 305 304 303 304 304 303 303 301 304 305 304 306 303 302 309 314 316 316 312 309 309 308 303 301 303 303 302 302 301 300 300 299 302 302 295 291 289 288 288 288 287 286 286 286 286 285 285 285 285
306 307 307 306 306 306 306 306 306 307 306 307 307 307 307 307 307 307 308 308 308 309 308 306 307 310 306 303 304 303 303 303 303 304 305 305 305 305 305 305 304 303 308 307 303 303 302 305 306 304 305 302 301 308 312 308 306 307 307 308 307 303 301 301 302 302 302 301 300 300 300 302 301 294 291 289 288 288 288 287 287 286 286 286 285 285 285 285
306 307 306 306 306 306 306 306 306 306 306 308 308 308 308 307 307 307 306 307 310 311 309 306 308 310 305 303 303 303 303 303 303 304 304 305 305 306 305 305 304 306 314 311 304 304 304 306 309 306 305 304 303 305 304 302 303 304 304 304 304 304 302 300 301 303 301 299 301 301 301 302 300 296 292 290 288 288 288 287 287 286 286 286 286 286 286 286
306 306 305 306 306 306 306 306 306 306 307 307 307 309 313 313 311 310 308 308 307 306 304 304 305 305 304 303 303 303 303 303 303 303 304 305 305 307 305 306 310 310 313 310 304 305 305 306 307 305 303 303 303 303 301 301 301 301 303 303 303 302 301 299 301 304 301 300 303 304 301 300 299 297 293 291 289 288 288 287 287 287 286 286 286 287 287 287
306 305 306 306 306 306 306 307 307 308 308 308 307 311 318 322 314 308 307 307 305 303 303 303 302 303 303 302 303 303 303 304 303 303 304 304 305 306 305 309 314 310 309 309 306 306 305 306 304 302 302 302 304 303 302 303 302 302 303 302 303 302 300 298 298 302 301 300 302 302 300 300 300 297 294 292 290 289 288 288 287 287 287 287 287 287 288 288
305 305 306 306 305 306 307 308 309 311 312 311 311 312 314 316 311 306 307 308 305 304 304 303 303 305 303 302 304 302 302 305 304 303 304 305 307 307 307 308 309 305 306 309 309 307 305 304 302 302 303 304 305 305 303 303 304 304 303 302 303 302 300 301 300 301 300 298 301 302 299 299 300 296 294 292 291 289 289 288 288 288 287 287 287 288 288 289
306 306 306 306 306 306 307 309 310 311 312 310 310 310 308 309 308 307 308 311 309 305 306 306 305 306 305 304 304 302 303 304 305 304 303 306 308 310 313 311 308 306 305 308 310 310 307 302 301 304 304 303 305 307 304 304 305 304 302 303 303 300 299 302 302 300 299 298 300 301 299 298 297 295 293 293 292 291 290 289 289 288 288 287 287 288 289 289
306 306 305 306 305 306 307 308 309 309 309 309 308 309 308 309 309 309 311 313 312 307 305 305 304 305 305 304 303 304 305 303 304 304 302 305 307 308 311 311 313 310 304 307 309 308 305 300 302 309 311 307 305 306 303 302 304 303 302 302 301 300 299 300 300 299 299 300 299 298 300 300 297 294 294 293 291 291 290 290 290 289 288 288 288 288 289 289
306 306 306 306 305 307 307 308 309 307 307 309 309 309 308 308 306 308 314 315 312 310 307 304 304 304 303 304 304 304 305 305 303 303 302 303 306 308 307 308 314 311 305 307 308 306 304 301 302 308 311 309 305 303 299 299 302 305 305 303 299 299 299 299 300 298 301 303 299 297 304 306 298 295 296 293 291 291 290 290 290 289 289 289 289 288 289 290
306 306 305 306 306 307 309 310 310 309 310 308 308 309 307 308 308 308 319 325 317 312 310 307 305 305 303 305 305 303 307 307 303 302 303 301 303 307 308 307 310 311 307 306 306 304 302 303 305 305 307 308 306 303 298 298 301 303 304 303 300 298 298 299 299 298 302 303 298 297 303 305 299 298 298 293 291 291 290 290 289 289 289 289 288 288 288 289
306 306 305 306 307 307 309 311 310 311 313 308 307 308 305 307 307 307 320 326 316 311 310 307 305 305 306 304 303 305 307 306 303 302 303 301 302 305 309 310 308 309 308 306 306 304 302 305 307 306 308 307 305 303 299 298 300 304 304 300 299 298 297 299 297 297 301 301 299 299 299 300 300 299 295 291 292 291 289 290 289 288 289 288 288 287 287 289
306 305 306 306 307 307 308 309 308 309 312 310 306 306 307 307 306 313 323 318 309 308 307 308 306 304 308 306 304 307 307 304 305 303 302 302 301 305 311 311 308 307 305 306 307 304 301 304 305 305 307 305 300 299 299 298 299 304 305 299 299 299 298 298 297 299 300 299 303 302 296 298 302 298 292 289 292 293 291 291 290 289 289 288 288 287 287 288
306 307 307 306 307 306 306 307 307 308 311 308 304 306 308 305 309 320 324 313 308 308 307 308 305 305 310 309 307 310 307 305 307 304 303 302 300 305 308 308 310 307 302 306 312 305 300 301 304 304 302 301 300 300 300 299 299 302 302 299 299 298 298 298 299 302 301 301 306 302 295 298 302 300 295 292 294 296 295 293 291 290 289 288 288 287 287 288
305 307 306 306 306 305 307 307 306 310 310 306 306 307 306 310 324 329 316 309 309 308 309 308 304 307 311 308 306 309 308 308 310 307 305 303 301 304 303 303 310 309 305 309 310 304 301 301 303 304 300 299 299 299 299 300 300 301 301 300 299 299 299 301 302 302 302 306 307 299 296 298 300 302 299 297 300 302 299 296 294 292 291 289 288 288 288 287
305 306 305 306 307 306 308 308 307 308 308 306 305 306 309 317 331 329 310 307 309 308 310 309 307 311 311 307 305 308 310 309 309 309 308 306 304 306 305 304 310 313 317 317 308 302 302 304 304 304 302 299 298 298 299 299 300 300 299 299 302 304 302 304 309 306 305 311 306 296 295 297 299 304 303 299 300 301 299 299 298 297 295 291 288 288 288 286
305 306 305 305 308 308 310 310 308 306 306 306 305 313 323 318 317 319 309 306 309 309 310 307 307 310 309 307 306 307 308 305 306 310 307 306 305 303 303 304 307 314 322 317 309 307 306 303 302 303 301 297 298 301 301 302 302 301 299 300 307 311 307 308 312 309 308 310 301 294 296 297 298 301 302 300 299 298 298 298 297 297 296 293 290 289 287 286
305 306 305 305 307 308 309 309 307 305 306 307 310 322 332 320 314 316 311 308 309 307 307 306 306 307 306 307 305 304 305 302 304 307 303 305 308 302 300 300 299 307 314 308 306 311 311 305 301 300 300 297 298 301 302 301 301 300 298 301 308 309 307 310 309 305 307 306 298 293 296 300 301 301 301 301 300 299 297 296 296 296 295 294 292 289 287 287
305 306 305 306 307 306 307 306 305 307 305 308 319 323 318 316 317 313 309 311 309 306 308 307 307 307 306 305 303 303 306 304 304 308 307 308 310 306 304 303 299 304 310 306 302 305 310 310 304 300 299 299 298 298 300 299 299 299 297 299 306 305 305 309 308 306 306 304 298 294 299 306 306 305 305 302 299 296 294 293 293 292 291 291 290 288 286 286
307 305 304 305 305 305 307 305 306 307 305 316 330 321 313 320 319 313 314 313 308 309 309 306 308 309 308 308 305 303 305 304 304 308 309 307 306 306 304 303 300 301 307 308 303 301 306 309 304 298 296 297 297 296 298 299 299 298 296 299 303 302 303 306 305 302 299 300 300 299 304 308 303 302 301 296 295 294 292 292 291 291 290 289 288 287 285 285
308 307 305 304 304 306 306 305 307 305 310 327 330 320 324 324 311 311 315 309 308 311 307 306 309 310 311 311 308 303 302 303 304 305 306 304 303 303 301 301 299 299 304 308 304 302 308 309 302 297 297 296 296 296 296 299 299 298 298 301 298 296 300 302 301 298 296 300 303 301 303 302 300 304 299 292 293 294 293 293 291 291 289 288 288 286 284 284
307 307 305 301 303 306 305 307 307 306 317 329 322 319 324 313 303 309 311 304 307 311 309 308 308 308 313 312 309 307 304 303 304 304 304 303 303 304 302 301 298 296 299 304 303 301 307 311 303 298 299 296 294 296 296 296 298 299 300 300 295 295 300 300 299 301 301 303 303 300 303 301 300 306 302 295 296 296 293 292 291 289 288 288 288 286 284 284
306 307 305 302 303 305 305 307 305 310 323 325 315 315 313 305 302 306 307 303 305 309 311 312 308 306 311 312 310 306 304 305 306 305 306 304 303 305 304 301 298 296 296 299 304 301 302 311 306 297 298 298 295 297 298 296 295 297 298 296 296 301 304 300 300 304 303 303 303 302 302 301 300 306 307 302 301 300 296 293 291 290 289 288 287 285 284 283
307 312 309 302 303 306 307 306 306 316 324 317 317 316 307 306 306 303 304 304 304 307 309 310 307 304 306 310 310 305 303 306 306 305 306 305 302 302 301 300 299 298 297 298 302 301 300 308 308 298 295 297 297 298 302 300 295 296 297 295 297 301 303 300 298 301 303 302 303 304 303 303 304 308 309 304 302 301 299 295 294 293 290 288 287 286 285 283
308 318 313 302 304 308 307 306 312 328 326 311 317 317 306 306 307 302 303 304 304 306 306 307 306 304 306 307 307 306 305 306 306 305 306 304 303 301 298 299 299 298 298 297 298 300 300 303 308 304 297 298 300 300 303 303 299 299 300 298 299 298 298 298 296 297 301 303 303 303 304 304 303 304 304 302 301 300 298 297 296 293 291 289 288 287 285 283
310 322 316 304 304 305 308 312 314 323 324 311 311 312 307 307 306 304 303 304 305 303 302 305 306 305 310 308 305 306 306 305 306 307 306 303 303 303 299 299 300 298 298 299 299 300 300 301 307 308 303 305 306 299 297 300 301 302 304 303 303 301 299 301 300 297 296 299 302 301 302 302 300 301 301 300 301 300 298 297 296 293 292 290 288 287 285 283
315 321 311 304 304 304 313 319 311 312 320 312 306 306 306 306 305 304 303 302 304 303 301 305 306 306 310 308 306 307 306 306 305 305 306 304 304 304 301 298 299 299 300 300 298 298 300 301 303 305 304 304 301 295 294 296 297 298 299 299 301 302 303 304 305 301 297 296 297 297 299 301 300 300 301 300 301 300 297 295 295 293 291 290 288 286 284 283
322 317 306 304 305 306 313 315 311 314 317 307 302 303 304 305 304 302 302 302 303 303 304 306 304 303 305 304 305 306 305 306 306 305 306 306 303 302 299 298 297 298 300 300 297 297 300 302 302 305 306 301 295 293 293 294 293 295 297 296 297 301 302 303 304 301 299 298 296 296 298 300 300 300 300 299 298 296 294 292 292 292 290 288 287 285 283 282
320 310 306 306 304 306 312 314 316 319 312 303 303 303 302 303 304 304 305 306 303 302 306 308 303 301 303 304 305 305 303 304 305 303 303 305 302 297 297 299 297 295 298 300 299 298 300 303 304 307 310 307 302 299 300 298 294 294 298 297 297 299 298 297 296 295 297 299 298 299 301 301 300 301 299 297 297 295 294 292 291 291 290 289 287 285 283 282
314 308 312 312 305 305 310 315 325 326 313 305 304 304 303 302 303 304 306 306 303 302 305 306 302 302 304 303 303 303 301 302 303 301 300 303 301 296 297 299 297 297 298 298 297 297 300 303 303 306 311 311 310 309 309 307 300 296 297 296 295 297 297 296 296 296 298 297 295 299 303 301 300 301 299 299 299 297 297 295 292 291 290 289 288 286 284 282
311 311 318 317 310 310 309 308 317 323 317 311 306 304 305 304 303 302 303 302 302 302 303 302 301 303 303 302 303 305 302 301 302 301 301 303 301 298 297 298 298 299 298 297 297 298 300 300 299 303 309 309 309 309 306 304 302 300 299 297 296 296 295 297 299 298 298 297 295 297 299 299 299 299 299 299 300 299 298 297 296 293 291 290 288 286 285 283
310 312 317 315 311 313 312 309 313 317 314 312 307 304 306 306 303 301 300 300 302 301 301 301 301 302 303 303 305 307 304 302 301 300 301 302 300 296 295 296 297 298 298 296 296 298 300 300 298 300 303 302 302 302 300 299 299 299 299 299 299 296 294 296 298 298 297 298 299 299 298 298 299 299 299 300 299 298 298 297 296 295 293 292 289 287 286 284
307 310 310 307 308 312 308 307 314 315 309 307 306 305 306 307 305 305 302 299 300 301 300 301 303 304 307 307 306 307 305 303 303 302 299 300 300 297 296 295 296 297 296 294 295 297 299 301 300 298 300 300 297 297 298 297 296 297 297 298 297 296 295 295 296 296 296 298 301 301 299 299 299 298 299 299 298 297 297 296 295 294 292 291 289 287 286 284
305 308 304 302 309 312 307 305 311 314 310 308 308 306 308 309 308 308 303 300 302 302 300 303 307 307 309 308 306 308 308 304 304 305 301 299 299 299 300 300 297 295 294 294 294 295 298 302 301 297 299 301 297 297 297 296 296 297 297 296 296 296 295 295 295 295 295 296 297 297 297 297 297 297 297 296 296 296 295 294 294 293 292 291 290 288 286 285
307 309 305 306 310 308 306 307 308 309 306 305 306 306 308 311 310 307 303 302 305 303 300 305 311 310 309 307 306 309 310 306 303 303 303 301 300 300 303 305 302 296 294 294 294 292 295 302 301 297 299 301 300 299 299 297 298 298 296 296 296 296 295 294 294 294 294 295 295 294 295 295 294 295 296 295 295 295 294 294 294 293 293 291 290 289 287 286
307 305 305 313 311 304 307 309 307 308 307 305 306 306 306 311 311 308 304 303 304 305 303 306 311 310 306 304 305 308 308 308 305 302 302 302 301 301 300 301 304 302 297 295 295 293 294 299 301 298 300 302 301 300 300 298 297 299 300 301 299 298 298 297 294 293 295 296 296 295 296 297 297 297 297 297 296 296 296 296 295 295 294 292 291 290 288 287
305 302 304 317 313 302 305 309 305 307 311 310 309 306 306 311 310 306 304 303 302 303 303 305 308 307 306 306 307 305 303 303 301 298 300 301 300 301 300 298 301 304 300 294 295 294 294 298 300 298 300 305 301 297 298 298 300 306 310 310 306 301 300 301 298 295 295 296 298 300 300 301 300 299 298 298 297 297 297 297 297 296 294 293 292 290 290 289
Wind_Speed
8 9 10 11 12 13 13 12 10 9 10 10 10 11 12 11 10 9 8 7 6 5 4 2 1 1 0 2 4 5 11 19 26 30 24 19 24 21 18 17 16 14 9 5 5 5 3 4 7 8 7 4 4 4 5 6 4 5 4 5 3 2 2 3 4 4 4 2 1 3 5 11 7 2 5 5 9 8 8 7 7 10 10 11 14 18 19 18
8 8 9 10 10 11 12 12 9 7 8 9 9 10 9 8 7 6 6 5 4 3 2 1 2 3 3 3 3 3 5 12 24 26 23 21 21 18 16 15 14 12 9 4 4 4 3 3 7 5 4 3 5 4 4 4 5 5 4 5 2 4 2 4 5 3 4 5 3 3 4 6 5 5 5 4 4 6 9 5 4 8 7 9 14 16 17 16
8 8 8 8 8 9 10 10 8 6 6 8 9 9 8 7 5 6 6 5 3 1 1 3 3 5 6 5 6 4 3 7 16 17 22 23 19 18 18 15 12 11 9 4 3 4 1 3 4 3 5 4 4 4 5 4 4 3 4 5 2 5 3 2 4 5 5 6 6 4 2 4 2 2 4 7 7 5 7 6 4 6 5 6 9 15 17 15
8 7 7 7 7 7 8 8 7 6 5 8 9 8 7 6 6 5 4 3 2 2 3 4 4 6 8 8 7 5 4 5 7 12 21 22 20 20 17 15 12 9 7 5 5 3 2 2 2 5 6 4 4 4 5 4 2 3 3 5 5 5 4 2 4 6 4 5 7 4 4 5 2 2 5 10 8 2 6 8 8 10 10 8 8 12 16 16
7 7 7 6 6 6 8 7 6 5 6 9 9 8 7 6 6 3 4 3 1 2 2 1 2 3 4 7 9 7 2 4 6 16 21 20 21 19 16 15 10 6 5 6 7 6 5 2 5 6 6 4 5 5 4 4 4 4 3 6 8 4 5 3 4 6 4 6 7 6 4 4 2 3 3 6 4 4 6 6 8 11 11 11 11 12 14 15
7 7 6 6 5 6 8 9 8 7 8 9 9 8 8 7 5 5 5 5 5 4 5 9 12 13 13 8 3 3 4 3 8 18 20 20 20 17 15 15 11 6 5 9 10 10 8 5 6 5 4 3 4 4 2 5 5 5 2 4 6 4 7 4 2 4 5 7 7 6 3 3 4 3 0 2 2 4 2 6 9 11 13 15 15 14 13 13
7 7 6 5 6 6 9 12 12 12 11 10 10 9 8 7 6 6 6 7 7 6 7 12 13 11 13 15 15 12 8 2 11 18 20 19 17 15 13 15 16 10 10 14 13 8 7 8 7 4 5 4 3 4 3 5 6 6 4 3 3 4 7 6 4 4 5 7 5 6 5 4 5 3 1 2 0 1 5 11 14 15 16 17 15 12 13 13
6 7 6 5 6 6 9 11 13 15 13 12 11 9 7 5 6 6 7 8 6 4 5 8 7 2 4 7 10 10 5 4 15 19 19 16 14 14 12 15 19 18 19 19 11 5 5 7 5 3 5 2 4 3 3 6 7 5 5 4 3 4 5 7 6 7 7 6 5 7 7 3 5 4 3 2 2 2 7 12 14 15 14 13 12 11 13 13
7 7 6 5 5 6 8 8 8 12 12 11 10 7 6 5 5 7 8 8 5 2 3 5 4 2 2 3 6 6 4 8 15 17 17 14 12 14 15 18 20 21 23 21 16 10 5 3 2 4 6 2 5 3 1 5 3 2 4 4 5 4 4 6 5 7 7 4 5 7 6 3 4 3 3 3 5 4 7 9 9 11 10 8 8 11 13 13
7 7 6 5 5 5 7 6 4 8 10 9 8 6 5 5 6 9 11 11 10 9 5 3 1 3 1 3 6 5 5 10 14 14 13 12 12 16 20 21 21 23 21 20 21 14 4 4 5 7 8 3 5 3 2 5 2 3 6 6 6 4 4 4 4 7 6 2 4 7 5 5 3 2 0 6 6 5 7 6 6 8 7 6 7 10 13 13
7 7 7 5 5 5 6 4 3 6 7 6 5 4 4 5 8 9 10 11 11 12 13 14 11 10 15 13 7 4 6 11 13 12 10 10 13 15 18 19 21 24 22 19 18 14 5 7 8 7 5 3 4 4 4 2 2 4 8 6 4 2 1 4 2 4 4 2 2 10 7 2 1 2 5 8 8 7 8 7 5 6 6 6 6 9 11 13
7 7 7 6 6 5 5 3 3 5 5 5 3 3 4 5 7 7 6 6 4 4 4 4 2 5 16 16 6 3 7 12 12 9 7 8 11 11 12 14 18 22 23 19 15 14 7 8 8 7 2 3 4 3 2 0 3 4 7 6 5 7 4 2 1 2 2 2 5 11 5 3 3 5 5 9 8 7 8 7 6 6 6 5 6 7 10 13
7 7 7 6 6 5 5 4 4 4 4 4 4 4 5 5 4 3 3 4 4 5 3 5 3 3 5 7 3 6 9 13 11 5 4 6 7 7 8 10 13 16 20 21 17 16 12 11 16 10 2 6 3 0 3 3 5 4 5 5 2 7 3 3 1 3 4 4 9 6 2 5 6 5 4 9 9 8 8 7 6 6 5 5 6 5 8 12
8 7 8 7 6 5 6 5 5 4 5 7 6 7 7 5 4 4 6 6 5 4 5 6 7 5 6 3 1 8 10 11 10 6 5 5 4 6 8 10 12 11 13 18 19 19 17 18 20 10 3 5 1 1 4 6 5 3 3 2 3 3 4 7 3 1 5 3 8 3 4 5 6 6 7 8 9 10 9 8 7 6 6 5 6 6 6 11
8 7 6 7 6 6 7 6 6 5 6 7 5 5 6 5 5 6 6 4 2 3 2 4 5 6 7 2 1 6 10 11 12 12 8 5 3 5 6 9 13 13 11 14 16 18 20 22 17 6 3 4 5 5 5 4 5 4 2 3 3 1 4 9 4 3 4 2 2 4 4 6 5 7 9 8 9 10 9 8 8 7 7 7 6 7 6 10
9 7 6 7 7 7 7 6 6 5 5 5 3 3 5 5 7 7 7 5 5 5 5 5 2 4 5 1 2 5 8 10 13 12 7 4 3 5 6 4 8 12 13 14 14 15 20 19 10 3 3 6 6 5 3 4 4 4 2 1 4 2 4 6 3 3 2 2 3 3 3 5 5 6 8 9 9 9 8 8 9 8 8 7 6 7 6 8
9 7 7 8 8 6 6 6 6 7 8 8 8 8 7 5 6 6 6 8 8 6 7 6 3 5 5 1 2 4 7 10 13 10 6 4 4 6 8 2 2 6 9 14 16 14 14 11 4 2 5 5 3 3 2 3 4 4 3 0 3 2 2 4 4 4 4 2 4 3 3 6 6 4 8 10 10 10 9 9 9 8 8 7 7 7 7 7
8 8 8 9 9 9 9 9 10 10 11 12 12 13 13 10 6 4 3 3 2 1 5 8 6 4 3 3 2 6 11 10 11 10 6 4 4 7 7 3 2 2 4 8 12 10 7 6 4 3 4 5 5 6 3 2 3 3 3 2 3 3 2 4 5 4 5 5 5 5 5 8 7 4 8 9 10 10 10 9 8 9 8 8 8 7 8 8
9 10 11 14 16 15 11 8 7 7 7 9 10 10 11 12 10 10 12 10 3 1 2 5 4 4 0 3 5 10 10 7 7 11 10 6 4 7 10 8 5 4 4 4 6 6 4 4 5 4 4 6 4 4 4 5 5 5 5 2 3 5 4 5 6 4 3 5 7 5 6 7 6 5 8 8 9 10 9 8 7 8 8 8 7 7 8 7
11 14 17 19 17 11 6 3 3 5 5 5 4 3 4 5 7 6 12 13 4 2 3 2 1 4 1 3 7 11 5 2 6 13 16 10 3 4 9 9 7 7 5 2 3 4 4 6 5 3 3 6 4 3 2 4 4 4 3 3 4 4 5 6 6 5 3 4 5 5 5 9 8 8 9 8 7 8 9 8 8 8 7 8 8 8 8 7
14 18 19 16 11 8 7 3 3 3 3 4 3 1 2 2 4 1 2 6 2 3 4 1 2 4 2 3 8 10 2 1 8 18 21 10 2 4 6 6 7 6 4 1 1 4 5 7 2 3 4 5 2 1 2 3 2 2 2 1 4 3 6 8 5 5 4 4 6 5 5 10 9 7 8 7 8 10 11 10 10 10 9 8 8 9 8 6
16 20 18 10 8 10 9 5 3 1 2 2 3 5 4 4 7 7 4 4 2 4 5 4 5 3 2 3 9 8 2 4 9 16 20 12 5 3 2 5 7 3 5 3 1 4 7 4 3 6 5 1 4 4 5 5 4 2 2 1 3 4 5 7 3 2 3 2 6 6 5 10 9 6 6 7 9 8 9 11 10 10 10 8 8 9 8 6
16 20 16 6 8 10 8 6 5 4 4 4 9 10 8 8 8 6 4 5 0 4 4 5 5 4 4 4 9 9 5 5 3 10 18 12 5 3 3 6 6 3 6 5 3 4 4 0 3 1 3 5 3 5 7 5 3 2 1 1 4 3 2 4 4 4 6 3 5 7 7 8 5 2 5 7 7 4 5 8 8 8 10 10 10 8 7 8
16 18 16 5 7 8 7 7 6 7 8 11 14 13 11 10 7 3 2 4 1 1 1 1 1 0 1 2 8 6 3 3 1 7 16 9 2 2 4 4 5 5 4 5 7 7 3 2 1 5 5 5 3 5 6 5 5 2 2 2 4 4 2 5 5 8 9 4 2 5 7 6 1 1 6 4 3 4 3 6 7 8 8 8 8 7 7 7
17 16 14 5 4 6 6 6 6 8 8 10 12 13 11 8 3 2 2 4 2 3 2 1 1 0 1 2 6 2 2 3 0 4 10 8 2 2 3 2 4 3 2 2 8 6 1 2 2 5 6 5 5 3 3 3 4 4 3 5 6 6 6 6 6 7 6 4 2 5 5 6 3 3 8 4 3 6 3 5 9 8 7 7 7 8 7 7
16 14 11 4 2 5 5 3 4 5 5 5 10 11 7 4 2 1 2 5 2 4 3 1 1 2 3 5 6 0 4 3 2 2 8 7 3 3 3 2 3 3 5 1 4 2 0 3 4 5 4 6 5 2 1 4 3 3 3 5 5 4 5 6 4 2 2 4 3 4 2 5 5 4 7 4 6 9 5 7 10 8 8 8 8 8 7 7
13 10 7 2 2 3 3 1 0 2 2 3 10 9 3 3 1 1 3 5 2 2 1 1 1 3 2 5 4 3 2 3 2 4 7 8 4 3 4 2 2 2 2 2 2 0 1 3 6 5 5 6 4 2 2 4 3 4 3 1 5 7 7 6 2 3 2 4 4 2 3 3 5 4 4 2 5 9 9 11 11 10 10 10 10 9 8 8
9 7 4 2 2 2 3 2 2 3 1 4 10 7 3 3 2 2 5 3 2 0 2 1 1 2 2 4 6 4 1 2 2 3 7 10 7 3 5 2 4 2 0 4 1 2 1 0 1 3 5 4 1 2 4 4 2 6 6 6 7 8 7 4 3 3 2 3 4 4 2 1 6 5 3 2 3 8 10 13 13 12 12 12 11 10 9 8
7 5 4 4 5 6 7 5 4 4 3 5 9 6 3 3 2 4 6 1 1 1 1 1 0 2 4 5 6 4 2 2 2 3 6 9 8 5 4 3 7 5 2 4 3 3 1 2 4 5 4 0 4 5 5 5 2 6 7 8 4 2 2 1 4 2 2 3 4 5 1 1 6 5 1 1 3 7 10 11 11 11 11 11 11 11 9 7
5 5 5 7 7 7 7 7 7 6 4 7 9 6 2 1 3 6 3 2 0 0 1 1 1 2 5 4 4 5 4 3 2 4 5 5 7 8 3 1 5 6 2 5 2 2 2 2 3 4 2 3 3 5 3 6 4 5 7 7 4 3 2 2 2 3 4 2 6 5 2 2 4 6 3 3 4 7 7 7 7 8 9 10 10 10 8 7
3 4 5 6 7 6 5 5 7 7 5 8 9 4 0 2 5 5 1 3 0 1 0 2 2 4 6 2 1 4 4 4 5 5 5 4 6 7 4 1 3 4 4 5 3 3 4 3 1 1 1 1 2 3 1 1 1 5 4 3 4 4 3 3 4 4 3 4 5 4 1 2 3 6 5 5 7 7 6 7 7 8 9 10 9 9 8 7
3 2 3 6 7 7 5 4 5 7 8 9 7 2 4 3 1 2 2 2 1 1 1 0 1 3 3 2 2 3 2 3 4 4 3 3 4 4 3 1 1 4 4 3 3 4 2 2 3 3 2 1 2 2 4 4 4 5 4 3 4 4 4 3 4 2 1 5 4 4 1 1 6 8 8 9 10 9 9 9 8 8 9 9 8 8 7 6
5 3 1 4 6 7 5 4 6 9 10 9 4 4 7 4 2 3 1 1 0 1 1 1 1 1 1 2 2 2 1 1 3 4 2 2 4 2 2 0 2 1 2 1 3 4 3 4 3 2 1 0 3 2 2 3 4 4 2 3 3 2 4 4 4 3 3 5 3 3 1 3 6 7 9 11 11 9 10 10 9 8 8 8 8 7 6 6
6 5 3 2 4 5 5 7 8 10 9 7 4 5 5 2 5 3 1 3 1 2 2 2 2 2 2 1 1 2 1 1 2 3 2 2 3 1 3 4 2 2 2 2 1 1 2 4 3 1 1 1 3 2 3 2 1 2 2 3 3 2 1 2 2 1 4 6 4 1 0 3 4 5 7 8 7 5 6 8 7 6 7 6 5 5 6 7
5 5 5 5 5 5 7 8 8 8 6 3 6 5 3 4 4 2 3 4 2 1 1 1 3 4 3 2 2 1 1 1 1 3 4 3 2 1 1 3 3 3 3 2 1 1 1 4 4 1 1 2 2 2 3 4 1 2 2 3 1 2 3 2 3 4 1 5 5 2 2 5 4 8 6 2 5 6 5 6 5 7 8 5 5 6 7 7
3 3 4 5 5 5 6 7 6 5 3 5 6 2 4 4 2 3 3 2 3 3 2 2 3 3 2 3 3 3 1 1 1 2 2 1 2 2 1 2 1 2 3 3 1 1 1 4 4 2 2 2 2 3 1 2 0 0 2 1 2 3 5 3 2 2 3 2 4 2 4 5 4 8 6 4 5 7 6 6 7 8 8 6 7 8 8 8
1 2 3 5 6 4 5 5 4 3 3 7 4 3 4 2 1 3 1 1 2 4 5 2 1 2 2 2 2 2 1 1 1 1 1 1 1 3 2 2 1 2 3 4 2 2 2 4 4 0 1 2 1 2 1 2 1 2 1 3 2 2 4 3 1 4 4 1 4 3 6 8 4 4 5 4 6 9 8 9 9 9 8 8 10 9 9 9
3 3 3 6 6 3 4 4 3 3 5 5 1 3 2 1 1 1 0 0 1 4 4 3 2 1 3 2 2 3 1 1 0 1 1 1 1 3 4 2 1 1 2 2 2 1 3 2 5 1 2 3 2 2 2 3 1 2 2 2 2 1 1 1 0 2 2 3 5 4 6 6 4 5 6 5 7 9 9 8 8 10 10 9 10 10 10 8
3 2 2 5 5 4 3 4 3 4 5 2 2 3 1 2 1 1 1 0 1 3 2 3 1 1 3 3 3 3 2 3 2 1 1 1 1 2 4 2 2 1 2 2 3 1 3 1 4 2 1 2 2 1 2 2 1 3 2 1 2 2 3 1 0 1 1 2 4 4 5 5 6 6 5 9 10 9 8 7 8 11 11 9 9 9 8 8
1 2 2 4 4 4 3 4 3 6 4 2 4 2 1 1 2 1 1 0 1 1 1 3 2 2 3 3 3 2 2 3 4 2 2 1 1 1 2 2 3 2 1 3 2 1 2 2 3 4 3 1 1 3 5 5 3 2 1 0 1 0 1 0 0 3 3 2 2 2 5 9 8 5 7 11 11 8 8 8 8 9 9 9 9 8 8 8
1 2 2 5 3 2 3 5 5 3 3 1 2 1 0 1 1 1 2 1 1 1 1 2 3 3 3 2 2 3 2 2 2 2 2 2 1 1 2 2 4 4 2 3 2 1 1 2 3 3 3 2 4 4 4 6 6 5 4 4 3 2 2 0 3 1 2 3 4 2 4 12 9 3 7 10 8 8 8 8 9 8 9 9 8 9 9 9
4 2 3 4 3 2 4 5 3 2 4 1 1 1 0 2 2 0 1 2 1 0 1 1 2 2 3 2 2 3 3 2 2 2 2 3 3 2 1 2 3 4 4 2 2 2 2 3 1 4 5 4 5 3 3 3 3 4 3 3 3 4 5 4 3 3 1 1 2 3 1 11 8 5 5 7 6 8 8 8 9 8 8 9 9 9 10 9
3 2 1 5 2 2 6 3 3 3 1 1 1 1 1 1 1 0 1 1 1 0 1 0 1 1 1 1 2 3 3 2 3 3 2 3 2 2 1 2 2 3 3 1 2 1 1 2 1 4 5 2 2 3 2 2 2 1 3 3 4 3 4 5 5 3 2 3 2 2 3 11 8 3 5 6 5 7 7 7 8 8 7 8 9 10 9 9
2 3 1 5 3 1 3 1 1 0 2 2 1 1 1 1 2 2 1 1 1 2 1 1 1 1 1 1 2 2 3 1 2 2 2 3 2 1 2 2 1 2 2 2 3 1 1 1 1 2 6 6 4 4 4 3 1 3 4 3 4 4 6 4 2 3 1 5 7 4 5 11 8 2 3 5 6 7 8 7 8 8 8 8 8 9 9 9
2 1 2 5 6 4 2 3 5 4 2 1 1 2 1 1 1 2 2 2 2 2 2 1 0 1 1 2 2 1 0 0 1 0 1 1 1 2 2 1 1 2 2 2 1 2 1 2 2 2 2 4 5 5 4 2 2 2 2 4 4 6 9 5 2 3 3 5 7 6 7 12 13 9 8 9 8 9 10 7 7 8 9 10 8 8 8 8
2 1 2 4 6 6 2 1 5 5 4 4 1 2 2 1 2 1 2 2 1 2 1 1 1 2 2 2 2 1 1 1 1 1 1 2 2 2 1 1 1 2 2 1 3 3 2 1 3 5 6 7 7 7 2 2 1 5 5 6 6 7 8 6 4 4 5 3 4 10 13 15 22 20 17 16 13 12 12 9 8 9 9 10 9 8 8 8
1 1 1 1 2 3 3 3 4 4 3 4 2 2 3 2 2 1 0 1 0 1 1 1 1 2 2 2 2 2 2 1 1 1 2 3 2 2 1 2 1 1 2 2 1 3 4 3 5 7 11 12 10 9 5 3 6 11 9 6 8 8 8 8 7 8 5 4 7 13 11 10 20 21 18 19 18 16 15 13 12 11 10 9 8 8 9 9
1 2 2 1 1 0 1 1 3 4 2 2 2 1 3 2 1 2 1 1 1 0 1 0 2 5 6 5 3 2 1 1 2 3 2 2 1 1 1 1 1 1 1 1 2 3 4 4 5 5 8 12 10 10 10 7 9 11 10 9 9 9 11 14 17 12 8 6 14 15 8 10 18 21 20 21 19 18 18 15 13 12 11 9 8 8 10 11
2 2 1 2 0 2 1 1 3 6 4 2 1 1 4 4 4 4 2 2 2 2 2 2 5 6 6 5 4 3 3 2 2 3 3 3 2 2 0 2 1 0 1 1 1 1 4 4 4 2 5 12 11 10 9 8 7 9 12 12 11 11 14 17 19 14 11 13 20 20 19 20 21 21 21 21 19 17 16 13 11 13 13 10 9 10 11 12
1 2 1 3 3 1 1 2 4 5 2 1 0 2 3 5 6 4 1 3 2 2 2 4 7 5 5 5 5 4 6 5 2 3 4 4 2 3 3 3 3 2 1 2 1 1 2 3 2 3 3 10 8 5 4 5 6 10 16 15 11 10 12 14 16 11 8 14 21 19 18 19 20 19 17 17 16 14 13 13 12 13 13 10 10 11 12 13
2 3 3 4 3 2 2 2 3 4 1 1 2 3 2 5 7 4 1 2 3 4 5 6 5 2 3 3 5 6 7 7 4 4 5 6 3 3 3 3 5 5 3 3 1 1 2 2 2 5 3 7 3 5 7 8 8 11 18 18 11 7 8 9 10 8 9 11 14 11 10 13 16 13 10 11 13 13 15 16 12 12 11 9 11 13 13 13
3 3 3 5 3 1 0 2 2 2 2 3 3 3 2 4 5 5 2 1 1 3 5 6 5 4 3 3 7 7 4 5 5 4 4 4 2 2 1 2 6 7 6 5 1 1 4 1 1 3 2 6 4 6 8 9 9 9 11 9 7 7 6 6 7 9 12 9 6 6 9 12 13 12 12 14 14 14 16 15 10 11 12 10 11 14 14 14
Wind_Direction
92 88 78 75 74 73 73 75 90 117 130 131 125 117 112 105 96 90 84 82 91 91 102 129 209 225 192 49 37 50 38 42 46 40 37 8 353 357 354 355 355 352 348 318 310 338 345 328 313 322 340 4 17 344 353 12 31 54 75 80 94 127 114 153 172 175 124 131 334 39 96 122 131 156 133 75 54 79 71 56 61 60 63 85 105 117 124 130
98 91 82 78 77 76 74 70 76 106 133 142 135 126 119 107 92 74 66 68 82 87 112 273 272 231 257 289 307 16 25 31 39 30 16 5 3 5 0 2 358 351 352 331 298 341 41 336 319 347 38 43 2 357 7 7 41 68 108 81 140 188 148 166 157 149 128 130 127 80 98 119 141 172 148 110 108 103 90 71 72 83 80 94 106 112 117 121
103 95 85 80 79 78 79 76 77 95 125 144 141 135 127 110 87 72 71 66 63 56 287 292 270 253 277 270 273 302 290 16 35 13 358 6 10 7 5 1 356 353 352 351 316 310 249 282 316 43 68 52 9 25 30 13 36 71 107 77 202 193 144 175 130 112 138 141 127 103 81 65 71 160 114 127 145 136 131 142 133 136 149 132 115 110 113 114
109 100 88 79 76 73 79 77 72 87 116 135 138 137 133 114 101 89 54 23 352 275 279 283 276 276 275 263 265 271 277 24 26 343 352 4 5 7 11 5 359 359 358 27 27 357 256 275 45 77 75 45 350 30 32 355 46 66 94 130 185 172 111 151 144 120 116 116 120 123 91 78 47 40 124 138 126 171 200 185 174 170 167 154 137 118 115 113
115 108 94 84 77 71 72 63 54 78 115 132 137 139 136 119 111 61 4 26 69 214 230 194 74 18 318 273 253 250 326 49 334 339 356 0 2 8 17 17 16 16 26 57 57 70 98 100 73 56 63 52 356 26 10 339 75 61 14 145 166 155 121 163 156 119 97 87 105 127 115 116 80 37 142 155 146 207 214 201 176 162 159 150 142 130 121 117
117 114 102 89 81 75 65 53 58 93 117 133 138 139 131 113 88 34 42 91 106 126 140 121 99 71 54 53 147 166 86 100 316 343 356 356 4 12 23 32 44 63 93 80 64 75 81 62 61 47 57 65 37 57 343 333 69 89 31 132 166 162 135 158 130 97 111 108 124 147 131 109 92 63 164 150 201 217 149 139 142 141 146 141 137 135 129 128
120 117 105 89 83 81 70 66 79 99 110 122 127 128 121 96 60 45 68 97 110 119 128 125 109 79 61 65 79 78 84 99 329 349 355 356 10 17 32 45 53 81 96 67 55 69 70 60 76 89 76 72 81 76 16 12 54 93 127 146 156 134 125 139 127 103 100 108 142 134 103 112 128 128 71 66 100 57 93 119 127 133 139 137 136 139 140 143
121 118 107 89 92 91 82 79 82 92 100 106 111 115 112 82 54 58 86 104 113 116 135 146 141 87 37 53 72 66 61 337 341 354 355 360 22 26 40 49 51 68 68 51 45 71 72 68 97 121 79 78 119 95 30 50 44 76 140 166 123 92 117 131 117 105 95 92 113 95 81 137 161 134 93 118 171 112 114 121 126 131 134 136 141 148 149 150
121 119 110 98 106 102 95 91 82 88 96 100 103 107 101 75 66 84 99 103 93 93 178 191 208 246 351 39 89 70 354 339 349 355 357 7 35 43 52 50 47 58 58 47 45 61 84 90 178 152 128 148 99 84 43 73 56 143 136 142 121 109 136 134 117 119 123 131 126 86 63 127 151 91 75 204 197 158 132 123 130 130 131 144 150 158 158 159
125 123 116 109 114 111 104 106 92 90 97 103 103 95 81 71 89 102 99 94 86 84 88 83 205 222 111 64 84 70 333 350 1 358 3 24 53 61 57 51 50 57 57 48 44 46 67 127 157 134 122 119 86 69 50 89 128 141 108 101 109 142 165 124 135 152 144 159 139 114 118 163 173 31 234 218 202 165 137 133 145 135 144 162 160 169 169 173
130 128 123 117 116 118 113 117 111 97 102 111 104 74 66 83 103 108 100 96 91 83 80 82 85 86 78 71 82 81 354 3 9 6 14 38 58 62 52 46 51 58 58 52 44 41 66 147 137 108 99 80 82 59 32 93 136 114 111 89 33 25 78 56 95 190 142 65 115 120 126 197 268 297 213 192 183 166 146 153 164 148 161 168 169 180 180 187
133 134 128 125 125 125 119 125 119 104 106 104 88 56 79 115 117 113 107 101 96 88 81 69 55 63 66 64 71 70 28 21 13 10 23 39 54 57 43 42 53 56 58 56 43 45 78 158 112 76 111 116 93 55 36 66 83 87 104 101 345 3 36 37 13 281 65 93 147 117 91 286 240 253 213 163 163 161 151 165 175 167 176 177 179 187 193 198
138 141 138 141 143 140 132 135 125 110 108 97 81 71 95 137 136 128 126 122 120 101 45 16 319 265 63 60 53 51 34 22 14 15 37 36 53 60 46 52 58 50 52 57 51 55 81 121 102 89 100 100 111 126 84 46 58 62 59 91 6 10 348 277 347 336 30 136 167 127 9 273 240 245 183 155 157 152 160 181 186 184 188 189 194 198 207 207
140 144 146 150 150 144 135 132 124 111 106 105 97 84 88 117 127 121 122 130 129 84 36 60 82 82 78 104 90 45 21 12 19 26 28 26 55 69 60 60 56 46 50 57 56 59 78 95 92 86 58 80 100 18 46 15 32 58 24 37 48 42 290 304 327 49 43 147 169 138 298 267 255 232 181 171 164 157 175 192 191 193 196 201 205 207 219 218
140 139 142 147 148 143 138 131 122 118 117 112 103 82 74 94 116 119 122 130 115 69 56 110 103 76 74 85 74 26 9 11 17 16 13 7 35 42 43 57 56 57 62 60 58 56 67 79 75 55 348 21 39 45 34 1 11 38 32 318 352 73 286 313 319 93 57 264 137 78 279 271 256 216 186 179 171 169 184 194 196 197 201 207 214 214 224 229
141 143 143 141 144 145 139 125 120 128 128 110 90 72 69 101 116 109 108 95 95 107 92 85 60 75 91 55 7 11 3 4 359 5 11 355 13 1 353 38 62 64 66 59 59 50 51 65 71 51 25 15 40 67 40 16 358 356 79 244 297 320 311 319 325 45 59 275 347 39 248 275 271 212 186 180 178 180 186 199 201 201 208 208 215 221 222 235
147 148 140 138 149 152 139 126 128 130 121 108 96 82 79 112 122 108 106 93 94 110 83 56 18 77 83 348 4 352 337 340 343 357 12 350 351 347 341 340 61 68 71 48 40 34 29 41 61 63 48 29 39 78 47 359 327 327 33 44 277 274 299 313 308 330 30 43 335 332 241 261 272 212 186 185 183 186 193 203 204 203 213 214 219 224 224 232
148 139 135 140 140 126 118 122 126 127 120 109 98 88 86 90 91 93 109 115 110 72 50 25 19 79 50 350 337 309 315 325 340 0 11 355 9 18 19 35 26 23 48 31 25 24 15 19 47 69 40 25 28 59 84 260 258 279 309 329 308 290 252 284 285 302 16 14 317 311 279 268 281 231 196 195 186 192 204 203 205 209 213 219 222 224 228 231
138 132 135 131 121 111 111 119 125 135 135 117 105 94 87 79 73 66 56 61 64 17 24 340 14 108 271 327 318 312 315 326 354 9 13 5 14 47 45 34 37 41 39 26 8 15 36 34 40 52 15 1 9 89 139 223 221 236 261 234 264 285 268 263 268 277 2 336 292 278 268 271 280 235 206 205 192 199 213 206 209 214 215 224 225 226 230 229
137 139 140 127 116 104 91 114 162 179 175 153 140 81 79 73 56 32 35 50 63 86 110 281 26 95 18 325 331 334 322 328 23 17 14 4 337 39 28 14 33 49 45 46 348 356 66 66 42 32 331 313 287 174 172 246 223 215 238 240 254 268 282 277 271 279 343 341 271 239 267 277 269 235 211 200 191 204 214 211 216 217 220 224 222 230 231 231
146 148 143 126 100 65 55 85 163 196 208 214 213 90 148 151 84 163 2 47 33 59 81 355 56 84 24 317 341 351 320 334 19 15 13 8 344 20 2 6 45 37 359 337 346 351 55 75 30 278 253 284 300 146 56 31 96 146 171 238 306 282 283 290 274 280 2 20 278 260 283 280 269 240 212 184 188 210 210 207 215 216 222 226 223 232 233 241
153 157 150 121 64 48 56 75 77 5 297 246 170 114 132 143 123 155 151 92 13 26 51 29 42 38 343 345 351 359 46 24 7 2 6 9 22 44 9 35 66 45 338 7 39 13 46 69 282 265 220 129 48 55 47 52 80 68 101 95 319 295 301 306 278 278 14 27 285 299 305 277 267 237 215 197 201 217 212 208 213 211 217 226 224 230 234 246
160 165 162 125 46 46 54 57 50 39 44 105 122 114 112 113 126 159 124 99 67 357 27 31 43 4 338 8 4 13 61 51 3 338 354 7 30 73 96 61 66 43 2 29 101 85 68 16 283 285 151 122 52 19 37 39 49 50 51 28 294 294 2 304 296 327 320 269 260 298 303 279 269 227 236 225 215 241 234 221 225 217 218 221 222 227 225 231
163 167 169 149 35 39 47 46 50 65 84 110 116 118 124 122 130 163 97 85 77 330 360 17 103 80 306 350 0 16 75 64 135 326 352 19 77 56 92 102 77 54 20 45 82 93 105 244 87 62 61 105 94 14 43 37 358 323 210 194 270 284 229 239 285 328 320 300 254 310 312 293 306 237 253 246 235 269 253 230 240 234 229 231 234 237 225 224
160 165 169 164 27 38 51 53 64 86 108 120 121 128 134 138 166 205 97 71 30 306 322 318 191 181 254 343 349 352 108 46 173 319 357 30 66 30 77 113 85 94 238 55 71 88 98 294 63 62 33 64 96 54 68 77 356 324 245 208 238 266 254 257 306 341 340 334 348 21 351 298 319 266 252 246 238 253 239 229 241 239 239 240 241 242 233 231
158 163 166 174 15 37 47 53 66 93 119 138 142 144 146 162 221 237 100 64 11 292 332 285 209 2 328 340 340 30 88 4 279 9 21 25 24 94 81 356 59 149 214 137 73 114 100 357 46 90 62 45 64 58 135 125 65 332 241 196 221 248 261 276 306 357 341 283 284 65 100 272 307 278 259 249 232 247 253 247 246 241 242 237 236 239 233 233
160 168 173 209 346 21 17 7 164 139 125 178 166 157 161 180 223 320 68 44 343 254 35 244 235 25 333 335 355 110 102 303 301 35 31 24 2 86 83 358 58 114 194 116 39 289 167 13 28 57 58 44 40 6 239 151 99 277 252 26 310 294 285 275 245 190 234 280 304 36 129 258 293 272 282 298 236 256 260 253 252 244 241 240 239 239 231 225
171 181 192 241 297 295 270 270 218 192 217 199 177 167 176 195 266 358 85 69 305 202 76 274 271 16 327 2 34 92 168 309 65 354 10 38 23 50 87 128 148 147 63 108 187 272 127 359 16 76 56 40 349 258 218 156 124 263 278 322 302 287 278 252 179 190 251 352 323 319 92 253 275 272 342 15 237 263 259 248 248 242 239 239 238 238 232 223
186 197 215 240 256 252 241 242 225 207 229 197 173 172 195 224 289 48 80 125 281 42 66 336 342 316 340 11 16 30 13 13 86 313 357 41 28 40 93 153 138 131 37 82 171 213 101 230 193 129 90 271 257 251 201 161 221 281 308 315 300 292 286 167 130 134 46 28 274 266 99 75 278 271 317 28 240 253 252 246 244 241 240 238 237 238 229 220
190 203 224 236 240 237 230 235 231 221 217 183 172 182 222 304 51 64 49 244 226 338 246 16 284 331 24 37 351 5 32 360 332 347 9 27 10 28 82 169 107 110 26 33 93 214 330 300 193 121 134 200 255 277 205 177 237 326 349 329 339 28 40 75 82 81 63 334 258 237 139 95 301 279 228 203 222 220 228 249 249 242 243 238 236 237 226 215
171 196 220 229 225 219 216 226 224 209 179 168 174 183 360 24 68 94 225 244 135 282 334 24 321 15 37 85 360 2 24 347 335 16 26 5 2 14 32 16 59 66 13 5 11 317 339 348 258 273 255 148 31 325 301 148 351 12 4 328 351 351 12 26 357 40 61 288 254 211 183 132 242 270 242 228 239 218 210 233 238 234 237 236 233 230 220 212
112 158 204 224 221 218 214 206 191 171 156 161 165 113 75 57 34 159 257 321 6 273 148 67 302 36 25 43 45 342 344 358 3 51 56 28 29 17 22 90 145 36 2 319 337 335 315 272 284 311 302 90 64 350 341 1 22 23 2 14 27 354 4 7 333 9 262 265 217 185 290 257 228 255 260 256 254 235 220 222 223 223 227 231 231 227 220 210
73 75 128 216 214 212 201 173 157 149 154 160 142 52 76 88 240 213 239 340 349 294 84 90 31 82 42 31 23 312 339 19 4 45 78 94 69 20 333 298 154 66 337 284 354 355 333 299 308 341 302 81 95 83 351 328 358 7 9 57 66 31 8 330 306 338 290 272 223 180 303 281 271 273 249 247 251 235 224 222 220 221 224 230 231 224 219 214
63 62 74 142 163 174 157 143 145 147 157 156 96 55 84 149 235 203 233 249 237 354 43 88 39 42 46 55 286 288 69 12 345 39 26 39 61 24 311 330 17 71 90 79 41 38 19 309 281 180 254 50 90 144 164 157 345 310 184 118 105 121 79 283 269 290 295 294 287 331 126 219 272 278 221 228 262 259 237 233 236 243 240 239 244 232 222 220
73 82 88 94 101 119 129 134 143 151 163 132 65 70 134 224 240 180 217 229 202 4 11 61 66 56 9 333 314 330 123 255 15 55 29 39 113 156 271 301 342 68 97 80 306 132 87 271 259 267 274 101 96 203 144 109 52 268 146 91 62 175 153 169 220 207 263 317 296 277 229 212 241 271 256 270 298 282 260 252 256 260 252 244 248 237 223 224
85 94 86 77 78 94 118 131 138 152 153 91 66 86 196 228 232 173 197 171 148 156 130 54 71 86 316 305 333 355 17 289 34 54 13 51 171 178 174 244 267 102 128 127 172 128 50 279 277 350 356 94 142 212 142 86 187 81 64 125 226 166 127 114 284 296 64 2 283 281 278 283 308 291 299 358 303 276 266 258 250 249 249 239 238 235 225 224
158 132 88 54 57 89 120 129 137 145 92 85 99 211 214 220 191 175 200 77 140 136 118 139 200 159 226 258 282 299 336 320 5 79 244 249 188 174 169 238 216 178 180 146 166 184 138 283 287 56 264 282 162 148 51 360 135 111 153 213 176 86 85 97 315 343 42 265 274 305 285 293 324 304 315 341 282 268 258 249 248 251 247 239 239 235 227 223
216 159 87 38 45 89 120 131 139 113 75 78 152 243 208 197 216 149 157 38 111 89 102 174 211 172 191 191 240 243 176 216 287 103 183 229 238 156 144 192 197 215 238 124 113 163 121 292 297 271 202 278 21 81 343 326 41 109 178 172 94 73 330 31 38 335 360 293 286 290 280 278 235 238 286 287 259 262 260 245 243 248 240 236 240 236 230 230
220 165 47 19 40 69 108 156 137 75 69 88 231 250 196 204 273 201 174 192 108 98 136 207 194 90 174 172 189 204 182 196 187 139 175 203 251 152 138 180 180 200 299 86 129 190 106 125 283 296 234 289 2 85 241 281 5 40 52 36 29 143 173 193 140 163 207 273 289 305 317 292 230 208 240 261 260 262 263 250 241 243 236 230 233 233 231 229
222 120 356 351 36 52 81 128 83 58 71 171 205 208 217 223 266 270 228 220 166 152 203 212 162 138 191 194 190 178 176 195 171 157 208 195 201 206 175 174 154 159 332 39 99 169 84 139 250 302 326 315 276 215 196 185 168 114 85 287 313 89 142 237 218 145 148 176 237 299 314 284 260 211 218 252 264 254 245 247 246 242 236 232 230 230 231 228
70 85 317 342 23 9 52 73 48 60 106 137 178 180 282 163 162 309 320 23 100 207 199 172 170 176 179 182 209 188 151 178 177 162 214 205 168 221 206 164 157 161 130 58 84 180 131 158 219 292 311 255 244 236 183 172 167 153 177 196 184 158 130 67 296 280 122 151 188 176 292 280 272 199 211 242 253 247 237 236 246 246 236 238 237 231 230 227
70 94 306 359 34 349 54 67 15 59 114 138 188 204 360 106 106 309 313 32 74 146 45 125 169 170 158 162 199 181 139 163 202 176 213 208 184 204 208 131 139 136 122 128 233 224 147 116 153 267 263 240 259 294 96 144 160 147 182 187 148 136 129 141 236 255 175 183 188 120 257 271 261 170 201 234 231 245 241 221 237 248 240 241 241 235 231 229
98 159 345 33 43 42 66 67 329 21 55 256 266 309 346 107 113 192 271 10 110 140 18 337 203 184 195 175 158 171 169 188 189 179 212 212 184 203 162 96 119 115 100 133 234 246 108 91 89 273 285 315 316 332 39 68 100 180 227 172 145 155 142 154 180 183 195 208 176 115 244 267 269 185 203 239 239 253 252 228 234 246 248 245 240 238 233 230
137 176 45 26 12 47 88 165 220 44 283 304 36 330 303 108 135 150 198 254 190 141 125 222 221 205 212 118 109 177 200 202 189 175 190 186 184 315 22 35 100 139 145 197 190 177 220 165 103 330 323 338 351 345 341 340 199 223 239 178 150 120 102 113 131 100 268 216 168 155 243 261 269 194 188 248 265 268 259 239 235 243 253 251 240 239 233 228
97 84 313 360 27 67 123 182 153 148 202 98 85 230 220 49 207 171 175 206 190 158 152 259 207 115 82 71 67 63 103 13 263 302 70 168 237 320 354 355 77 162 226 244 139 120 190 198 139 110 301 297 301 307 311 279 216 223 216 181 170 139 135 151 124 110 248 224 161 172 238 266 280 287 286 283 280 280 277 260 243 245 252 252 247 244 234 227
98 45 311 335 20 57 71 110 111 123 161 147 133 234 161 132 292 267 151 171 187 150 127 332 94 88 51 71 80 318 298 353 18 112 159 205 247 294 250 138 99 194 209 112 68 83 95 241 213 189 210 234 250 261 273 81 265 264 242 198 190 181 161 135 110 173 207 177 189 225 235 269 286 288 293 298 294 292 293 285 271 263 258 254 251 246 238 230
112 155 169 305 351 36 34 18 76 99 167 167 153 204 175 176 301 326 141 202 226 121 94 26 135 154 182 157 147 235 251 342 14 159 191 201 222 305 246 142 101 244 185 108 51 95 90 287 242 207 231 247 255 271 298 348 275 264 259 220 194 189 166 157 197 212 156 116 260 251 219 240 275 282 291 297 298 299 299 294 289 285 277 266 255 245 242 237
102 173 142 120 246 180 52 17 103 95 106 156 121 151 170 171 210 198 194 8 3 245 166 342 232 207 194 174 162 189 204 289 267 224 186 178 177 5 341 192 200 250 153 57 351 109 123 262 241 192 249 268 268 270 275 272 261 260 260 244 217 192 178 195 222 216 160 190 256 266 251 249 270 282 288 290 292 294 294 293 293 289 283 273 257 247 243 239
80 115 35 16 75 177 144 53 110 101 96 101 75 153 169 181 220 226 187 68 353 293 204 232 260 235 203 182 148 163 198 210 265 244 194 167 177 138 123 241 230 329 105 102 328 144 148 248 251 169 283 285 274 265 261 257 265 270 261 244 225 207 197 210 231 226 202 232 255 267 276 275 274 276 280 283 286 286 286 289 288 282 279 270 255 248 246 243
120 155 183 43 55 105 58 45 94 103 80 47 11 233 175 180 213 236 163 140 190 268 186 218 254 240 193 179 155 186 216 191 194 251 183 150 187 194 197 210 163 92 70 145 271 279 189 260 270 99 319 287 282 299 286 253 259 277 276 264 237 215 210 222 240 235 215 242 256 264 275 277 273 270 270 273 278 281 283 282 277 274 273 265 256 251 248 247
103 127 139 107 70 345 358 42 92 111 96 301 209 218 204 201 206 194 160 174 172 181 186 202 225 195 126 178 204 236 237 190 187 242 192 168 195 207 214 203 145 135 172 181 151 163 185 272 352 56 345 280 302 7 326 297 285 278 279 276 252 207 203 220 231 210 191 226 255 271 276 269 270 273 267 264 269 278 283 282 279 277 269 253 251 256 252 249
112 81 93 102 87 331 81 85 70 109 219 237 197 193 220 237 215 177 162 281 137 168 198 193 175 133 113 215 231 245 241 193 200 232 191 164 117 96 162 158 132 136 163 170 157 155 154 172 6 51 308 274 310 346 322 319 317 287 265 250 213 193 210 237 247 220 197 203 245 261 255 264 281 293 289 282 281 281 282 284 284 281 277 261 250 255 257 253